Time,TemperatureF,DewpointF,PressureIn,WindDirection,WindDirectionDegrees,WindSpeedMPH,WindSpeedGustMPH,Humidity,HourlyPrecipIn,Conditions,Clouds,dailyrainin,SoftwareType,DateUTC
2013-02-13 00:00:00,17.4,5.5,30.02,WSW,255,8.0,14.0,59,0.00,,---,0.00,VWS V14.01,2013-02-13 07:00:00,
2013-02-13 00:05:00,17.6,5.7,30.02,WSW,257,2.0,7.0,59,0.00,,---,0.00,VWS V14.01,2013-02-13 07:05:00,
2013-02-13 00:10:00,17.7,5.8,30.02,WSW,248,5.0,8.0,59,0.00,,---,0.00,VWS V14.01,2013-02-13 07:10:00,
2013-02-13 00:15:00,17.6,5.7,30.02,North,4,5.0,12.0,59,0.00,,---,0.00,VWS V14.01,2013-02-13 07:15:00,
2013-02-13 00:20:00,17.9,5.6,30.02,SSW,202,3.0,12.0,58,0.00,,---,0.00,VWS V14.01,2013-02-13 07:20:00,
2013-02-13 00:25:00,18.3,6.0,30.02,WNW,283,2.0,12.0,58,0.00,,---,0.00,VWS V14.01,2013-02-13 07:25:00,
2013-02-13 00:30:00,18.6,6.3,30.02,NW,312,3.0,14.0,58,0.00,,---,0.00,VWS V14.01,2013-02-13 07:30:00,
2013-02-13 00:35:00,18.8,6.1,30.02,SSW,193,4.0,10.0,57,0.00,,---,0.00,VWS V14.01,2013-02-13 07:35:00,
2013-02-13 00:40:00,18.7,6.0,30.01,NNE,29,3.0,12.0,57,0.00,,---,0.00,VWS V14.01,2013-02-13 07:40:00,
2013-02-13 00:45:00,18.4,5.7,30.01,SW,224,3.0,12.0,57,0.00,,---,0.00,VWS V14.01,2013-02-13 07:45:00,
2013-02-13 00:50:00,18.2,5.5,30.00,West,273,0.0,12.0,57,0.00,,---,0.00,VWS V14.01,2013-02-13 07:50:00,
2013-02-13 00:55:00,18.5,5.8,30.00,WSW,241,4.0,12.0,57,0.00,,---,0.00,VWS V14.01,2013-02-13 07:55:00,
2013-02-13 01:00:00,18.8,5.7,30.00,WSW,250,9.0,17.0,56,0.00,,---,0.00,VWS V14.01,2013-02-13 08:00:00,
2013-02-13 01:05:00,18.7,5.2,30.00,WSW,245,5.0,15.0,55,0.00,,---,0.00,VWS V14.01,2013-02-13 08:05:00,
2013-02-13 01:10:00,18.6,5.1,30.01,WSW,250,6.0,15.0,55,0.00,,---,0.00,VWS V14.01,2013-02-13 08:10:00,
2013-02-13 01:15:00,18.6,5.1,30.00,WNW,292,5.0,19.0,55,0.00,,---,0.00,VWS V14.01,2013-02-13 08:15:00,
2013-02-13 01:20:00,18.6,5.1,30.00,SE,133,4.0,19.0,55,0.00,,---,0.00,VWS V14.01,2013-02-13 08:20:00,
2013-02-13 01:25:00,18.5,5.0,30.00,NE,41,6.0,19.0,55,0.00,,---,0.00,VWS V14.01,2013-02-13 08:25:00,
2013-02-13 01:30:00,18.4,4.9,29.99,WSW,253,14.0,19.0,55,0.00,,---,0.00,VWS V14.01,2013-02-13 08:30:00,
2013-02-13 01:35:00,18.2,4.8,30.00,SSE,162,6.0,11.0,55,0.00,,---,0.00,VWS V14.01,2013-02-13 08:35:00,
2013-02-13 01:40:00,18.1,5.1,29.99,West,265,4.0,15.0,56,0.00,,---,0.00,VWS V14.01,2013-02-13 08:40:00,
2013-02-13 01:45:00,18.1,5.1,29.99,South,186,9.0,15.0,56,0.00,,---,0.00,VWS V14.01,2013-02-13 08:45:00,
2013-02-13 01:50:00,18.2,5.2,29.99,SSW,205,5.0,18.0,56,0.00,,---,0.00,VWS V14.01,2013-02-13 08:50:00,
2013-02-13 01:55:00,18.2,5.2,29.99,West,270,7.0,18.0,56,0.00,,---,0.00,VWS V14.01,2013-02-13 08:55:00,
2013-02-13 02:00:00,18.1,5.4,29.99,NW,315,8.0,18.0,57,0.00,,---,0.00,VWS V14.01,2013-02-13 09:00:00,
2013-02-13 02:05:00,18.2,5.5,29.98,WNW,293,7.0,11.0,57,0.00,,---,0.00,VWS V14.01,2013-02-13 09:05:00,
2013-02-13 02:10:00,18.2,5.5,29.99,SSW,200,4.0,18.0,57,0.00,,---,0.00,VWS V14.01,2013-02-13 09:10:00,
2013-02-13 02:15:00,18.3,5.6,29.97,NNE,25,7.0,18.0,57,0.00,,---,0.00,VWS V14.01,2013-02-13 09:15:00,
2013-02-13 02:20:00,18.3,5.6,29.97,West,269,12.0,18.0,57,0.00,,---,0.00,VWS V14.01,2013-02-13 09:20:00,
2013-02-13 02:25:00,18.3,5.6,29.97,West,263,9.0,20.0,57,0.00,,---,0.00,VWS V14.01,2013-02-13 09:25:00,
2013-02-13 02:30:00,18.3,6.0,29.97,WSW,245,8.0,20.0,58,0.00,,---,0.00,VWS V14.01,2013-02-13 09:30:00,
2013-02-13 02:35:00,18.6,6.3,29.97,WNW,293,6.0,18.0,58,0.00,,---,0.00,VWS V14.01,2013-02-13 09:35:00,
2013-02-13 02:40:00,19.0,6.3,29.97,North,10,11.0,20.0,57,0.00,,---,0.00,VWS V14.01,2013-02-13 09:40:00,
2013-02-13 02:45:00,19.1,6.4,29.97,WNW,284,8.0,20.0,57,0.00,,---,0.00,VWS V14.01,2013-02-13 09:45:00,
2013-02-13 02:50:00,18.8,6.1,29.96,WSW,256,9.0,21.0,57,0.00,,---,0.00,VWS V14.01,2013-02-13 09:50:00,
2013-02-13 02:55:00,18.6,5.9,29.96,NE,43,13.0,21.0,57,0.00,,---,0.00,VWS V14.01,2013-02-13 09:55:00,
2013-02-13 03:00:00,18.5,5.8,29.95,WSW,248,6.0,21.0,57,0.00,,---,0.00,VWS V14.01,2013-02-13 10:00:00,
2013-02-13 03:05:00,18.6,5.9,29.96,WSW,237,6.0,14.0,57,0.00,,---,0.00,VWS V14.01,2013-02-13 10:05:00,
2013-02-13 03:10:00,18.9,6.2,29.95,WSW,243,10.0,17.0,57,0.00,,---,0.00,VWS V14.01,2013-02-13 10:10:00,
2013-02-13 03:15:00,19.1,6.0,29.94,SW,224,8.0,17.0,56,0.00,,---,0.00,VWS V14.01,2013-02-13 10:15:00,
2013-02-13 03:20:00,19.2,6.1,29.95,WSW,242,4.0,18.0,56,0.00,,---,0.00,VWS V14.01,2013-02-13 10:20:00,
2013-02-13 03:25:00,19.4,6.3,29.95,SW,220,6.0,18.0,56,0.00,,---,0.00,VWS V14.01,2013-02-13 10:25:00,
2013-02-13 03:30:00,19.5,6.0,29.95,NNE,33,5.0,13.0,55,0.00,,---,0.00,VWS V14.01,2013-02-13 10:30:00,
2013-02-13 03:35:00,19.6,6.1,29.94,SW,228,4.0,11.0,55,0.00,,---,0.00,VWS V14.01,2013-02-13 10:35:00,
2013-02-13 03:40:00,19.7,6.2,29.95,WNW,302,4.0,11.0,55,0.00,,---,0.00,VWS V14.01,2013-02-13 10:40:00,
2013-02-13 03:45:00,19.9,6.3,29.94,NW,305,9.0,14.0,55,0.00,,---,0.00,VWS V14.01,2013-02-13 10:45:00,
2013-02-13 03:50:00,19.8,6.3,29.95,WNW,290,7.0,18.0,55,0.00,,---,0.00,VWS V14.01,2013-02-13 10:50:00,
2013-02-13 03:55:00,19.9,6.8,29.96,West,278,10.0,18.0,56,0.00,,---,0.00,VWS V14.01,2013-02-13 10:55:00,
2013-02-13 04:00:00,20.1,6.5,29.96,South,188,6.0,18.0,55,0.00,,---,0.00,VWS V14.01,2013-02-13 11:00:00,
2013-02-13 04:05:00,20.2,6.6,29.95,WNW,294,5.0,13.0,55,0.00,,---,0.00,VWS V14.01,2013-02-13 11:05:00,
2013-02-13 04:10:00,20.2,6.6,29.95,NNW,329,8.0,13.0,55,0.00,,---,0.00,VWS V14.01,2013-02-13 11:10:00,
2013-02-13 04:15:00,19.8,6.7,29.97,NE,44,12.0,15.0,56,0.00,,---,0.00,VWS V14.01,2013-02-13 11:15:00,
2013-02-13 04:20:00,19.4,6.7,29.97,NE,52,12.0,17.0,57,0.00,,---,0.00,VWS V14.01,2013-02-13 11:20:00,
2013-02-13 04:25:00,19.5,7.1,29.97,WNW,295,7.0,17.0,58,0.00,,---,0.00,VWS V14.01,2013-02-13 11:25:00,
2013-02-13 04:30:00,19.5,7.1,29.97,WNW,295,7.0,17.0,58,0.00,,---,0.00,VWS V14.01,2013-02-13 11:30:00,
2013-02-13 04:35:00,19.5,7.1,29.97,WNW,295,7.0,7.0,58,0.00,,---,0.00,VWS V14.01,2013-02-13 11:35:00,
2013-02-13 04:40:00,19.5,7.1,29.96,WNW,295,7.0,7.0,58,0.00,,---,0.00,VWS V14.01,2013-02-13 11:40:00,
2013-02-13 04:45:00,19.5,7.1,29.95,WNW,295,7.0,7.0,58,0.00,,---,0.00,VWS V14.01,2013-02-13 11:45:00,
2013-02-13 04:50:00,19.5,7.1,29.97,WNW,295,7.0,7.0,58,0.00,,---,0.00,VWS V14.01,2013-02-13 11:50:00,
2013-02-13 04:55:00,19.5,7.1,29.96,WNW,295,7.0,7.0,58,0.00,,---,0.00,VWS V14.01,2013-02-13 11:55:00,
2013-02-13 05:00:00,19.5,7.1,29.97,WNW,295,7.0,7.0,58,0.00,,---,0.00,VWS V14.01,2013-02-13 12:00:00,
2013-02-13 05:05:00,19.5,7.1,29.97,WNW,295,7.0,7.0,58,0.00,,---,0.00,VWS V14.01,2013-02-13 12:05:00,
2013-02-13 05:10:00,19.5,7.1,29.97,WNW,295,7.0,7.0,58,0.00,,---,0.00,VWS V14.01,2013-02-13 12:10:00,
2013-02-13 05:15:00,19.5,7.1,29.96,WNW,295,7.0,7.0,58,0.00,,---,0.00,VWS V14.01,2013-02-13 12:15:00,
2013-02-13 05:20:00,19.5,7.1,29.97,WNW,295,7.0,7.0,58,0.00,,---,0.00,VWS V14.01,2013-02-13 12:20:00,
2013-02-13 05:25:00,19.5,7.1,29.96,WNW,295,7.0,7.0,58,0.00,,---,0.00,VWS V14.01,2013-02-13 12:25:00,
2013-02-13 05:30:00,19.5,7.1,29.95,WNW,295,7.0,7.0,58,0.00,,---,0.00,VWS V14.01,2013-02-13 12:30:00,
2013-02-13 05:35:00,19.5,7.1,29.95,WNW,295,7.0,7.0,58,0.00,,---,0.00,VWS V14.01,2013-02-13 12:35:00,
2013-02-13 05:40:00,19.5,7.1,29.95,WNW,295,7.0,7.0,58,0.00,,---,0.00,VWS V14.01,2013-02-13 12:40:00,
2013-02-13 05:45:00,19.5,7.1,29.96,WNW,295,7.0,7.0,58,0.00,,---,0.00,VWS V14.01,2013-02-13 12:45:00,
2013-02-13 05:50:00,19.5,7.1,29.97,WNW,295,7.0,7.0,58,0.00,,---,0.00,VWS V14.01,2013-02-13 12:50:00,
2013-02-13 05:55:00,19.5,7.1,29.96,WNW,295,7.0,7.0,58,0.00,,---,0.00,VWS V14.01,2013-02-13 12:55:00,
2013-02-13 06:00:00,19.5,7.1,29.94,WNW,295,7.0,7.0,58,0.00,,---,0.00,VWS V14.01,2013-02-13 13:00:00,
2013-02-13 06:05:00,19.5,7.1,29.95,WNW,295,7.0,7.0,58,0.00,,---,0.00,VWS V14.01,2013-02-13 13:05:00,
2013-02-13 06:10:00,19.5,7.1,29.95,WNW,295,7.0,7.0,58,0.00,,---,0.00,VWS V14.01,2013-02-13 13:10:00,
2013-02-13 06:15:00,19.5,7.1,29.94,WNW,295,7.0,7.0,58,0.00,,---,0.00,VWS V14.01,2013-02-13 13:15:00,
2013-02-13 06:20:00,19.5,7.1,29.93,WNW,295,7.0,7.0,58,0.00,,---,0.00,VWS V14.01,2013-02-13 13:20:00,
2013-02-13 06:25:00,19.5,7.1,29.93,WNW,295,7.0,7.0,58,0.00,,---,0.00,VWS V14.01,2013-02-13 13:25:00,
2013-02-13 06:30:00,19.5,7.1,29.94,WNW,295,7.0,7.0,58,0.00,,---,0.00,VWS V14.01,2013-02-13 13:30:00,
2013-02-13 06:35:00,19.5,7.1,29.94,WNW,295,7.0,7.0,58,0.00,,---,0.00,VWS V14.01,2013-02-13 13:35:00,
2013-02-13 06:40:00,19.5,7.1,29.94,WNW,295,7.0,7.0,58,0.00,,---,0.00,VWS V14.01,2013-02-13 13:40:00,
2013-02-13 06:45:00,19.5,7.1,29.94,WNW,295,7.0,7.0,58,0.00,,---,0.00,VWS V14.01,2013-02-13 13:45:00,
2013-02-13 06:50:00,19.5,7.1,29.95,WNW,295,7.0,7.0,58,0.00,,---,0.00,VWS V14.01,2013-02-13 13:50:00,
2013-02-13 06:55:00,19.5,7.1,29.93,WNW,295,7.0,7.0,58,0.00,,---,0.00,VWS V14.01,2013-02-13 13:55:00,
2013-02-13 07:00:00,19.5,7.1,29.94,WNW,295,7.0,7.0,58,0.00,,---,0.00,VWS V14.01,2013-02-13 14:00:00,
2013-02-13 07:05:00,19.5,7.1,29.95,WNW,295,7.0,7.0,58,0.00,,---,0.00,VWS V14.01,2013-02-13 14:05:00,
2013-02-13 07:10:00,19.5,7.1,29.95,WNW,295,7.0,7.0,58,0.00,,---,0.00,VWS V14.01,2013-02-13 14:10:00,
2013-02-13 07:15:00,19.5,7.1,29.95,WNW,295,7.0,7.0,58,0.00,,---,0.00,VWS V14.01,2013-02-13 14:15:00,
2013-02-13 07:20:00,19.5,7.1,29.95,WNW,295,7.0,7.0,58,0.00,,---,0.00,VWS V14.01,2013-02-13 14:20:00,
2013-02-13 07:25:00,19.5,7.1,29.96,WNW,295,7.0,7.0,58,0.00,,---,0.00,VWS V14.01,2013-02-13 14:25:00,
2013-02-13 07:30:00,19.5,7.1,29.96,WNW,295,7.0,7.0,58,0.00,,---,0.00,VWS V14.01,2013-02-13 14:30:00,
2013-02-13 07:35:00,19.5,7.1,29.97,WNW,295,7.0,7.0,58,0.00,,---,0.00,VWS V14.01,2013-02-13 14:35:00,
2013-02-13 07:40:00,19.5,7.1,29.97,WNW,295,7.0,7.0,58,0.00,,---,0.00,VWS V14.01,2013-02-13 14:40:00,
2013-02-13 07:45:00,19.5,7.1,29.97,WNW,295,7.0,7.0,58,0.00,,---,0.00,VWS V14.01,2013-02-13 14:45:00,
2013-02-13 07:50:00,20.9,6.1,29.98,SW,225,14.0,16.0,52,0.00,,---,0.00,VWS V14.01,2013-02-13 14:50:00,
2013-02-13 07:55:00,20.9,6.1,29.97,WNW,285,8.0,23.0,52,0.00,,---,0.00,VWS V14.01,2013-02-13 14:55:00,
2013-02-13 08:00:00,21.0,6.2,29.98,West,276,9.0,23.0,52,0.00,,---,0.00,VWS V14.01,2013-02-13 15:00:00,
2013-02-13 08:05:00,21.0,6.2,29.98,South,176,7.0,14.0,52,0.00,,---,0.00,VWS V14.01,2013-02-13 15:05:00,
2013-02-13 08:10:00,20.9,6.1,29.98,West,278,6.0,17.0,52,0.00,,---,0.00,VWS V14.01,2013-02-13 15:10:00,
2013-02-13 08:15:00,21.1,6.2,29.97,SSW,202,6.0,17.0,52,0.00,,---,0.00,VWS V14.01,2013-02-13 15:15:00,
2013-02-13 08:20:00,21.1,6.2,29.97,SW,232,10.0,19.0,52,0.00,,---,0.00,VWS V14.01,2013-02-13 15:20:00,
2013-02-13 08:25:00,21.4,6.5,29.97,WSW,247,4.0,19.0,52,0.00,,---,0.00,VWS V14.01,2013-02-13 15:25:00,
2013-02-13 08:30:00,21.6,6.3,29.98,West,263,10.0,20.0,51,0.00,,---,0.00,VWS V14.01,2013-02-13 15:30:00,
2013-02-13 08:35:00,21.7,6.4,29.97,WSW,239,14.0,14.0,51,0.00,,---,0.00,VWS V14.01,2013-02-13 15:35:00,
2013-02-13 08:40:00,22.3,6.1,29.99,SSE,164,5.0,17.0,49,0.00,,---,0.00,VWS V14.01,2013-02-13 15:40:00,
2013-02-13 08:45:00,22.3,6.1,29.99,ENE,71,6.0,18.0,49,0.00,,---,0.00,VWS V14.01,2013-02-13 15:45:00,
2013-02-13 08:50:00,22.1,6.3,29.98,SW,222,3.0,18.0,50,0.00,,---,0.00,VWS V14.01,2013-02-13 15:50:00,
2013-02-13 08:55:00,21.6,6.3,29.98,SSW,210,5.0,18.0,51,0.00,,---,0.00,VWS V14.01,2013-02-13 15:55:00,
2013-02-13 09:00:00,21.1,6.7,29.98,West,264,5.0,19.0,53,0.00,,---,0.00,VWS V14.01,2013-02-13 16:00:00,
2013-02-13 09:05:00,20.8,6.4,29.98,SW,225,6.0,14.0,53,0.00,,---,0.00,VWS V14.01,2013-02-13 16:05:00,
2013-02-13 09:10:00,20.7,6.7,29.98,SSE,158,4.0,19.0,54,0.00,,---,0.00,VWS V14.01,2013-02-13 16:10:00,
2013-02-13 09:15:00,20.7,6.7,29.96,SSW,199,3.0,19.0,54,0.00,,---,0.00,VWS V14.01,2013-02-13 16:15:00,
2013-02-13 09:20:00,20.9,6.9,29.97,West,270,3.0,19.0,54,0.00,,---,0.00,VWS V14.01,2013-02-13 16:20:00,
2013-02-13 09:25:00,21.7,7.2,29.96,SSW,198,3.0,19.0,53,0.00,,---,0.00,VWS V14.01,2013-02-13 16:25:00,
2013-02-13 09:30:00,22.4,7.0,29.96,NNE,26,6.0,19.0,51,0.00,,---,0.00,VWS V14.01,2013-02-13 16:30:00,
2013-02-13 09:35:00,22.6,6.8,29.97,West,266,9.0,12.0,50,0.00,,---,0.00,VWS V14.01,2013-02-13 16:35:00,
2013-02-13 09:40:00,22.5,7.1,29.98,NE,36,4.0,12.0,51,0.00,,---,0.00,VWS V14.01,2013-02-13 16:40:00,
2013-02-13 09:45:00,22.4,7.0,29.98,SW,235,7.0,12.0,51,0.00,,---,0.00,VWS V14.01,2013-02-13 16:45:00,
2013-02-13 09:50:00,22.3,6.9,29.97,WSW,257,8.0,22.0,51,0.00,,---,0.00,VWS V14.01,2013-02-13 16:50:00,
2013-02-13 09:55:00,22.1,7.2,29.98,NW,313,17.0,22.0,52,0.00,,---,0.00,VWS V14.01,2013-02-13 16:55:00,
2013-02-13 10:00:00,22.1,7.2,29.98,WNW,293,9.0,22.0,52,0.00,,---,0.00,VWS V14.01,2013-02-13 17:00:00,
2013-02-13 10:05:00,22.2,7.3,29.97,NW,304,11.0,18.0,52,0.00,,---,0.00,VWS V14.01,2013-02-13 17:05:00,
2013-02-13 10:10:00,22.4,7.4,29.99,SSW,193,3.0,21.0,52,0.00,,---,0.00,VWS V14.01,2013-02-13 17:10:00,
2013-02-13 10:15:00,22.5,7.5,29.99,West,266,7.0,21.0,52,0.00,,---,0.00,VWS V14.01,2013-02-13 17:15:00,
2013-02-13 10:20:00,22.5,7.5,29.99,WSW,240,4.0,21.0,52,0.00,,---,0.00,VWS V14.01,2013-02-13 17:20:00,
2013-02-13 10:25:00,22.9,7.5,30.00,SW,228,5.0,21.0,51,0.00,,---,0.00,VWS V14.01,2013-02-13 17:25:00,
2013-02-13 10:30:00,23.1,7.2,30.00,SW,225,2.0,21.0,50,0.00,,---,0.00,VWS V14.01,2013-02-13 17:30:00,
2013-02-13 10:35:00,23.4,7.5,30.00,South,173,4.0,10.0,50,0.00,,---,0.00,VWS V14.01,2013-02-13 17:35:00,
2013-02-13 10:40:00,23.5,7.6,29.99,NNW,338,3.0,10.0,50,0.00,,---,0.00,VWS V14.01,2013-02-13 17:40:00,
2013-02-13 10:45:00,23.5,7.6,29.99,SE,143,2.0,11.0,50,0.00,,---,0.00,VWS V14.01,2013-02-13 17:45:00,
2013-02-13 10:50:00,23.8,7.9,29.98,NW,307,5.0,11.0,50,0.00,,---,0.00,VWS V14.01,2013-02-13 17:50:00,
2013-02-13 10:55:00,23.9,8.4,29.97,SE,125,3.0,16.0,51,0.00,,---,0.00,VWS V14.01,2013-02-13 17:55:00,
2013-02-13 11:00:00,24.3,8.4,29.96,SW,229,3.0,16.0,50,0.00,,---,0.00,VWS V14.01,2013-02-13 18:00:00,
2013-02-13 11:05:00,24.6,9.1,29.97,SW,214,4.0,10.0,51,0.00,,---,0.00,VWS V14.01,2013-02-13 18:05:00,
2013-02-13 11:10:00,24.8,8.8,29.98,ESE,113,2.0,14.0,50,0.00,,---,0.00,VWS V14.01,2013-02-13 18:10:00,
2013-02-13 11:15:00,25.3,9.3,29.99,SSW,200,3.0,14.0,50,0.00,,---,0.00,VWS V14.01,2013-02-13 18:15:00,
2013-02-13 11:20:00,25.0,8.6,30.00,West,281,4.0,16.0,49,0.00,,---,0.00,VWS V14.01,2013-02-13 18:20:00,
2013-02-13 11:25:00,25.0,9.0,30.00,WNW,299,3.0,16.0,50,0.00,,---,0.00,VWS V14.01,2013-02-13 18:25:00,
2013-02-13 11:30:00,25.6,9.6,29.99,SE,135,3.0,16.0,50,0.00,,---,0.00,VWS V14.01,2013-02-13 18:30:00,
2013-02-13 11:35:00,25.9,9.4,30.00,ESE,113,3.0,5.0,49,0.00,,---,0.00,VWS V14.01,2013-02-13 18:35:00,
2013-02-13 11:40:00,26.3,9.3,30.01,SE,129,4.0,8.0,48,0.00,,---,0.00,VWS V14.01,2013-02-13 18:40:00,
2013-02-13 11:45:00,26.5,9.9,30.02,NNW,335,6.0,8.0,49,0.00,,---,0.00,VWS V14.01,2013-02-13 18:45:00,
2013-02-13 11:50:00,26.6,9.6,30.01,East,81,1.0,12.0,48,0.00,,---,0.00,VWS V14.01,2013-02-13 18:50:00,
2013-02-13 11:55:00,26.7,10.1,30.02,NNW,343,3.0,12.0,49,0.00,,---,0.00,VWS V14.01,2013-02-13 18:55:00,
2013-02-13 12:00:00,27.0,10.4,30.02,West,270,5.0,12.0,49,0.00,,---,0.00,VWS V14.01,2013-02-13 19:00:00,
2013-02-13 12:05:00,26.6,9.1,30.01,SE,130,2.0,11.0,47,0.00,,---,0.00,VWS V14.01,2013-02-13 19:05:00,
2013-02-13 12:10:00,26.3,9.3,30.02,WSW,253,8.0,14.0,48,0.00,,---,0.00,VWS V14.01,2013-02-13 19:10:00,
2013-02-13 12:15:00,26.6,9.6,30.00,South,191,5.0,14.0,48,0.00,,---,0.00,VWS V14.01,2013-02-13 19:15:00,
2013-02-13 12:20:00,27.0,9.5,30.00,SE,126,2.0,14.0,47,0.00,,---,0.00,VWS V14.01,2013-02-13 19:20:00,
2013-02-13 12:25:00,27.7,9.6,30.00,West,270,8.0,14.0,46,0.00,,---,0.00,VWS V14.01,2013-02-13 19:25:00,
2013-02-13 12:30:00,27.6,9.5,30.01,East,89,12.0,16.0,46,0.00,,---,0.00,VWS V14.01,2013-02-13 19:30:00,
2013-02-13 12:35:00,28.0,9.4,30.00,SW,215,6.0,10.0,45,0.00,,---,0.00,VWS V14.01,2013-02-13 19:35:00,
2013-02-13 12:40:00,28.5,10.4,30.00,NW,315,6.0,12.0,46,0.00,,---,0.00,VWS V14.01,2013-02-13 19:40:00,
2013-02-13 12:45:00,28.2,9.6,30.00,SSW,198,2.0,12.0,45,0.00,,---,0.00,VWS V14.01,2013-02-13 19:45:00,
2013-02-13 12:50:00,28.1,9.5,29.99,SSW,197,4.0,12.0,45,0.00,,---,0.00,VWS V14.01,2013-02-13 19:50:00,
2013-02-13 12:55:00,28.1,9.5,30.00,SW,233,1.0,12.0,45,0.00,,---,0.00,VWS V14.01,2013-02-13 19:55:00,
2013-02-13 13:00:00,28.1,9.5,30.01,West,260,4.0,12.0,45,0.00,,---,0.00,VWS V14.01,2013-02-13 20:00:00,
2013-02-13 13:04:00,28.1,9.0,30.01,WNW,299,3.0,15.0,44,0.00,,---,0.00,VWS V14.01,2013-02-13 20:04:00,
2013-02-13 13:09:00,27.6,9.1,30.01,WSW,249,3.0,15.0,45,0.00,,---,0.00,VWS V14.01,2013-02-13 20:09:00,
2013-02-13 13:14:00,27.9,9.8,30.01,West,274,3.0,15.0,46,0.00,,---,0.00,VWS V14.01,2013-02-13 20:14:00,
2013-02-13 13:19:00,27.9,9.3,30.00,West,266,5.0,15.0,45,0.00,,---,0.00,VWS V14.01,2013-02-13 20:19:00,
2013-02-13 13:24:00,28.0,9.9,30.00,WSW,240,4.0,15.0,46,0.00,,---,0.00,VWS V14.01,2013-02-13 20:24:00,
2013-02-13 13:29:00,28.1,10.0,30.00,SW,224,5.0,15.0,46,0.00,,---,0.00,VWS V14.01,2013-02-13 20:29:00,
2013-02-13 13:34:00,28.2,10.1,30.00,WNW,285,5.0,5.0,46,0.00,,---,0.00,VWS V14.01,2013-02-13 20:34:00,
2013-02-13 13:39:00,27.8,10.2,30.00,West,280,5.0,7.0,47,0.00,,---,0.00,VWS V14.01,2013-02-13 20:39:00,
2013-02-13 13:44:00,27.7,9.6,30.00,WSW,257,4.0,10.0,46,0.00,,---,0.00,VWS V14.01,2013-02-13 20:44:00,
2013-02-13 13:49:00,27.5,9.9,30.00,WSW,240,2.0,10.0,47,0.00,,---,0.00,VWS V14.01,2013-02-13 20:49:00,
2013-02-13 13:54:00,27.3,10.2,30.00,WSW,238,3.0,10.0,48,0.00,,---,0.00,VWS V14.01,2013-02-13 20:54:00,
2013-02-13 13:59:00,27.2,10.1,30.00,South,176,2.0,10.0,48,0.00,,---,0.00,VWS V14.01,2013-02-13 20:59:00,
2013-02-13 14:04:00,26.8,10.2,30.00,South,169,4.0,4.0,49,0.00,,---,0.00,VWS V14.01,2013-02-13 21:04:00,
2013-02-13 14:09:00,26.6,10.5,30.00,West,259,2.0,7.0,50,0.00,,---,0.00,VWS V14.01,2013-02-13 21:09:00,
2013-02-13 14:14:00,26.7,11.0,30.00,SSW,195,1.0,7.0,51,0.00,,---,0.00,VWS V14.01,2013-02-13 21:14:00,
2013-02-13 14:19:00,26.7,11.0,30.00,SSW,210,1.0,7.0,51,0.00,,---,0.00,VWS V14.01,2013-02-13 21:19:00,
2013-02-13 14:24:00,27.1,10.9,30.00,West,259,4.0,7.0,50,0.00,,---,0.00,VWS V14.01,2013-02-13 21:24:00,
2013-02-13 14:29:00,26.9,11.2,29.99,SSW,194,1.0,7.0,51,0.00,,---,0.00,VWS V14.01,2013-02-13 21:29:00,
2013-02-13 14:34:00,26.9,11.2,29.99,SW,231,5.0,6.0,51,0.00,,---,0.00,VWS V14.01,2013-02-13 21:34:00,
2013-02-13 14:39:00,27.0,11.7,29.99,SSW,203,4.0,7.0,52,0.00,,---,0.00,VWS V14.01,2013-02-13 21:39:00,
2013-02-13 14:44:00,27.0,12.2,29.99,NE,55,6.0,8.0,53,0.00,,---,0.00,VWS V14.01,2013-02-13 21:44:00,
2013-02-13 14:49:00,27.2,12.4,29.98,WSW,245,3.0,8.0,53,0.00,,---,0.00,VWS V14.01,2013-02-13 21:49:00,
2013-02-13 14:54:00,27.7,12.4,29.98,West,271,1.0,9.0,52,0.00,,---,0.00,VWS V14.01,2013-02-13 21:54:00,
2013-02-13 14:59:00,28.0,12.7,29.98,NE,55,4.0,9.0,52,0.00,,---,0.00,VWS V14.01,2013-02-13 21:59:00,
2013-02-13 15:04:00,28.3,12.5,29.98,SE,140,3.0,4.0,51,0.00,,---,0.00,VWS V14.01,2013-02-13 22:04:00,
2013-02-13 15:09:00,28.6,12.8,29.98,SE,145,6.0,7.0,51,0.00,,---,0.00,VWS V14.01,2013-02-13 22:09:00,
2013-02-13 15:14:00,28.5,12.2,29.98,NW,325,3.0,11.0,50,0.00,,---,0.00,VWS V14.01,2013-02-13 22:14:00,
2013-02-13 15:19:00,28.4,12.1,29.97,SSE,166,4.0,11.0,50,0.00,,---,0.00,VWS V14.01,2013-02-13 22:19:00,
2013-02-13 15:24:00,28.6,11.9,29.97,WSW,238,4.0,11.0,49,0.00,,---,0.00,VWS V14.01,2013-02-13 22:24:00,
2013-02-13 15:29:00,28.3,11.6,29.97,WSW,248,3.0,12.0,49,0.00,,---,0.00,VWS V14.01,2013-02-13 22:29:00,
2013-02-13 15:34:00,28.0,11.8,29.96,SW,214,2.0,8.0,50,0.00,,---,0.00,VWS V14.01,2013-02-13 22:34:00,
2013-02-13 15:39:00,28.0,11.8,29.96,NW,321,3.0,12.0,50,0.00,,---,0.00,VWS V14.01,2013-02-13 22:39:00,
2013-02-13 15:44:00,27.8,12.0,29.97,WSW,243,5.0,12.0,51,0.00,,---,0.00,VWS V14.01,2013-02-13 22:44:00,
2013-02-13 15:49:00,27.6,11.9,29.96,NE,38,8.0,12.0,51,0.00,,---,0.00,VWS V14.01,2013-02-13 22:49:00,
2013-02-13 15:54:00,27.3,12.0,29.97,WSW,240,10.0,15.0,52,0.00,,---,0.00,VWS V14.01,2013-02-13 22:54:00,
2013-02-13 15:59:00,27.2,12.4,29.97,SE,136,4.0,15.0,53,0.00,,---,0.00,VWS V14.01,2013-02-13 22:59:00,
2013-02-13 16:04:00,27.3,12.0,29.97,West,262,5.0,9.0,52,0.00,,---,0.00,VWS V14.01,2013-02-13 23:04:00,
2013-02-13 16:09:00,27.4,11.7,29.97,SSW,210,9.0,13.0,51,0.00,,---,0.00,VWS V14.01,2013-02-13 23:09:00,
2013-02-13 16:14:00,27.4,11.7,29.96,WNW,284,5.0,13.0,51,0.00,,---,0.00,VWS V14.01,2013-02-13 23:14:00,
2013-02-13 16:19:00,27.5,11.8,29.97,WSW,250,10.0,16.0,51,0.00,,---,0.00,VWS V14.01,2013-02-13 23:19:00,
2013-02-13 16:24:00,27.6,11.9,29.97,West,276,5.0,16.0,51,0.00,,---,0.00,VWS V14.01,2013-02-13 23:24:00,
2013-02-13 16:29:00,27.7,11.5,29.97,SW,235,5.0,16.0,50,0.00,,---,0.00,VWS V14.01,2013-02-13 23:29:00,
2013-02-13 16:34:00,27.8,11.1,29.97,WNW,302,12.0,12.0,49,0.00,,---,0.00,VWS V14.01,2013-02-13 23:34:00,
2013-02-13 16:39:00,27.5,10.9,29.98,NW,316,8.0,13.0,49,0.00,,---,0.00,VWS V14.01,2013-02-13 23:39:00,
2013-02-13 16:44:00,27.1,10.5,29.98,SW,235,4.0,14.0,49,0.00,,---,0.00,VWS V14.01,2013-02-13 23:44:00,
2013-02-13 16:49:00,26.7,10.6,29.98,WSW,252,6.0,14.0,50,0.00,,---,0.00,VWS V14.01,2013-02-13 23:49:00,
2013-02-13 16:54:00,26.5,10.4,29.97,North,350,4.0,14.0,50,0.00,,---,0.00,VWS V14.01,2013-02-13 23:54:00,
2013-02-13 16:59:00,26.2,10.6,29.97,WSW,255,8.0,14.0,51,0.00,,---,0.00,VWS V14.01,2013-02-13 23:59:00,
2013-02-13 17:04:00,26.1,10.5,29.97,SW,228,3.0,7.0,51,0.00,,---,0.00,VWS V14.01,2013-02-14 00:04:00,
2013-02-13 17:09:00,26.0,10.4,29.97,WSW,253,2.0,15.0,51,0.00,,---,0.00,VWS V14.01,2013-02-14 00:09:00,
2013-02-13 17:14:00,25.8,10.2,29.97,SW,235,7.0,15.0,51,0.00,,---,0.00,VWS V14.01,2013-02-14 00:14:00,
2013-02-13 17:19:00,25.8,9.7,29.97,NNW,342,8.0,15.0,50,0.00,,---,0.00,VWS V14.01,2013-02-14 00:19:00,
2013-02-13 17:24:00,25.8,9.7,29.97,ESE,106,4.0,15.0,50,0.00,,---,0.00,VWS V14.01,2013-02-14 00:24:00,
2013-02-13 17:29:00,25.7,9.6,29.97,WSW,252,7.0,15.0,50,0.00,,---,0.00,VWS V14.01,2013-02-14 00:29:00,
2013-02-13 17:34:00,25.7,9.6,29.96,WSW,255,3.0,9.0,50,0.00,,---,0.00,VWS V14.01,2013-02-14 00:34:00,
2013-02-13 17:39:00,25.6,10.0,29.96,SW,231,4.0,13.0,51,0.00,,---,0.00,VWS V14.01,2013-02-14 00:39:00,
2013-02-13 17:44:00,25.5,9.9,29.97,West,277,3.0,13.0,51,0.00,,---,0.00,VWS V14.01,2013-02-14 00:44:00,
2013-02-13 17:49:00,25.4,9.8,29.98,West,269,4.0,13.0,51,0.00,,---,0.00,VWS V14.01,2013-02-14 00:49:00,
2013-02-13 17:54:00,25.4,9.8,29.97,West,278,7.0,14.0,51,0.00,,---,0.00,VWS V14.01,2013-02-14 00:54:00,
2013-02-13 17:59:00,25.4,9.8,29.98,NE,46,7.0,14.0,51,0.00,,---,0.00,VWS V14.01,2013-02-14 00:59:00,
2013-02-13 18:04:00,25.2,10.1,29.97,WSW,247,3.0,6.0,52,0.00,,---,0.00,VWS V14.01,2013-02-14 01:04:00,
2013-02-13 18:09:00,25.1,10.0,29.98,WNW,293,10.0,15.0,52,0.00,,---,0.00,VWS V14.01,2013-02-14 01:09:00,
2013-02-13 18:14:00,25.1,9.5,29.99,NNW,330,2.0,15.0,51,0.00,,---,0.00,VWS V14.01,2013-02-14 01:14:00,
2013-02-13 18:19:00,25.1,9.5,29.98,SW,235,6.0,15.0,51,0.00,,---,0.00,VWS V14.01,2013-02-14 01:19:00,
2013-02-13 18:24:00,25.0,9.9,29.98,NNE,18,8.0,15.0,52,0.00,,---,0.00,VWS V14.01,2013-02-14 01:24:00,
2013-02-13 18:29:00,24.9,10.2,29.99,East,95,5.0,15.0,53,0.00,,---,0.00,VWS V14.01,2013-02-14 01:29:00,
2013-02-13 18:34:00,24.8,10.5,29.99,WSW,240,7.0,9.0,54,0.00,,---,0.00,VWS V14.01,2013-02-14 01:34:00,
2013-02-13 18:39:00,24.7,10.4,29.99,WSW,240,11.0,11.0,54,0.00,,---,0.00,VWS V14.01,2013-02-14 01:39:00,
2013-02-13 18:44:00,24.7,10.0,29.99,WSW,257,12.0,24.0,53,0.00,,---,0.00,VWS V14.01,2013-02-14 01:44:00,
2013-02-13 18:49:00,24.8,10.1,30.00,SSE,155,4.0,24.0,53,0.00,,---,0.00,VWS V14.01,2013-02-14 01:49:00,
2013-02-13 18:54:00,24.7,10.4,29.99,WSW,247,5.0,24.0,54,0.00,,---,0.00,VWS V14.01,2013-02-14 01:54:00,
2013-02-13 18:59:00,24.5,10.7,30.00,West,270,6.0,24.0,55,0.00,,---,0.00,VWS V14.01,2013-02-14 01:59:00,
2013-02-13 19:04:00,24.6,9.9,30.00,WSW,238,4.0,4.0,53,0.00,,---,0.00,VWS V14.01,2013-02-14 02:04:00,
2013-02-13 19:09:00,24.6,9.9,30.00,SW,215,3.0,12.0,53,0.00,,---,0.00,VWS V14.01,2013-02-14 02:09:00,
2013-02-13 19:14:00,24.5,10.2,30.00,West,262,6.0,12.0,54,0.00,,---,0.00,VWS V14.01,2013-02-14 02:14:00,
2013-02-13 19:19:00,24.6,9.5,30.00,WSW,248,9.0,13.0,52,0.00,,---,0.00,VWS V14.01,2013-02-14 02:19:00,
2013-02-13 19:24:00,24.6,9.9,30.00,North,9,4.0,13.0,53,0.00,,---,0.00,VWS V14.01,2013-02-14 02:24:00,
2013-02-13 19:29:00,24.5,10.2,30.01,SSW,208,2.0,13.0,54,0.00,,---,0.00,VWS V14.01,2013-02-14 02:29:00,
2013-02-13 19:34:00,24.4,10.1,30.01,ENE,71,5.0,8.0,54,0.00,,---,0.00,VWS V14.01,2013-02-14 02:34:00,
2013-02-13 19:39:00,24.4,9.7,30.01,South,184,3.0,15.0,53,0.00,,---,0.00,VWS V14.01,2013-02-14 02:39:00,
2013-02-13 19:44:00,24.5,9.8,30.01,West,263,11.0,15.0,53,0.00,,---,0.00,VWS V14.01,2013-02-14 02:44:00,
2013-02-13 19:49:00,24.5,10.2,30.01,SW,235,6.0,15.0,54,0.00,,---,0.00,VWS V14.01,2013-02-14 02:49:00,
2013-02-13 19:54:00,24.4,10.1,30.02,North,4,5.0,15.0,54,0.00,,---,0.00,VWS V14.01,2013-02-14 02:54:00,
2013-02-13 19:59:00,24.3,9.6,30.02,NNE,24,3.0,15.0,53,0.00,,---,0.00,VWS V14.01,2013-02-14 02:59:00,
2013-02-13 20:04:00,24.2,10.0,30.02,WNW,298,3.0,11.0,54,0.00,,---,0.00,VWS V14.01,2013-02-14 03:04:00,
2013-02-13 20:09:00,24.3,10.5,30.02,SSE,158,4.0,13.0,55,0.00,,---,0.00,VWS V14.01,2013-02-14 03:09:00,
2013-02-13 20:14:00,24.3,10.1,30.02,NW,316,7.0,14.0,54,0.00,,---,0.00,VWS V14.01,2013-02-14 03:14:00,
2013-02-13 20:19:00,24.3,10.1,30.02,SW,231,7.0,16.0,54,0.00,,---,0.00,VWS V14.01,2013-02-14 03:19:00,
2013-02-13 20:24:00,24.3,9.2,30.02,SSW,212,2.0,16.0,52,0.00,,---,0.00,VWS V14.01,2013-02-14 03:24:00,
2013-02-13 20:29:00,24.4,9.7,30.02,WSW,252,11.0,18.0,53,0.00,,---,0.00,VWS V14.01,2013-02-14 03:29:00,
2013-02-13 20:34:00,24.4,9.3,30.02,NE,51,4.0,5.0,52,0.00,,---,0.00,VWS V14.01,2013-02-14 03:34:00,
2013-02-13 20:39:00,24.4,9.3,30.02,West,278,6.0,19.0,52,0.00,,---,0.00,VWS V14.01,2013-02-14 03:39:00,
2013-02-13 20:44:00,24.5,9.0,30.02,NW,313,9.0,19.0,51,0.00,,---,0.00,VWS V14.01,2013-02-14 03:44:00,
2013-02-13 20:49:00,24.4,8.9,30.01,SSW,206,4.0,19.0,51,0.00,,---,0.00,VWS V14.01,2013-02-14 03:49:00,
2013-02-13 20:55:00,24.4,9.7,30.02,WSW,252,6.0,19.0,53,0.00,,---,0.00,VWS V14.01,2013-02-14 03:55:00,
2013-02-13 21:00:00,24.4,9.7,30.02,WSW,248,8.0,19.0,53,0.00,,---,0.00,VWS V14.01,2013-02-14 04:00:00,
2013-02-13 21:05:00,24.4,10.1,30.02,WSW,248,5.0,10.0,54,0.00,,---,0.00,VWS V14.01,2013-02-14 04:05:00,
2013-02-13 21:10:00,24.4,9.7,30.02,North,10,10.0,14.0,53,0.00,,---,0.00,VWS V14.01,2013-02-14 04:10:00,
2013-02-13 21:15:00,24.4,10.1,30.02,SW,226,2.0,14.0,54,0.00,,---,0.00,VWS V14.01,2013-02-14 04:15:00,
2013-02-13 21:20:00,24.5,9.8,30.03,West,267,2.0,14.0,53,0.00,,---,0.00,VWS V14.01,2013-02-14 04:20:00,
2013-02-13 21:25:00,24.6,9.9,30.02,SW,231,7.0,14.0,53,0.00,,---,0.00,VWS V14.01,2013-02-14 04:25:00,
2013-02-13 21:30:00,24.6,10.3,30.02,WSW,248,3.0,14.0,54,0.00,,---,0.00,VWS V14.01,2013-02-14 04:30:00,
2013-02-13 21:35:00,24.5,10.2,30.02,West,262,3.0,13.0,54,0.00,,---,0.00,VWS V14.01,2013-02-14 04:35:00,
2013-02-13 21:40:00,24.6,9.9,30.02,WSW,244,1.0,13.0,53,0.00,,---,0.00,VWS V14.01,2013-02-14 04:40:00,
2013-02-13 21:45:00,24.6,9.9,30.02,West,263,6.0,13.0,53,0.00,,---,0.00,VWS V14.01,2013-02-14 04:45:00,
2013-02-13 21:50:00,24.7,10.0,30.03,SW,225,1.0,13.0,53,0.00,,---,0.00,VWS V14.01,2013-02-14 04:50:00,
2013-02-13 21:55:00,24.6,9.9,30.03,WSW,253,4.0,13.0,53,0.00,,---,0.00,VWS V14.01,2013-02-14 04:55:00,
2013-02-13 22:00:00,24.7,10.0,30.02,WNW,293,1.0,13.0,53,0.00,,---,0.00,VWS V14.01,2013-02-14 05:00:00,
2013-02-13 22:05:00,24.6,10.3,30.03,WSW,250,3.0,10.0,54,0.00,,---,0.00,VWS V14.01,2013-02-14 05:05:00,
2013-02-13 22:10:00,24.5,10.2,30.02,SSW,200,2.0,10.0,54,0.00,,---,0.00,VWS V14.01,2013-02-14 05:10:00,
2013-02-13 22:15:00,24.4,9.7,30.02,WSW,254,7.0,10.0,53,0.00,,---,0.00,VWS V14.01,2013-02-14 05:15:00,
2013-02-13 22:20:00,24.5,9.8,30.03,WSW,249,3.0,11.0,53,0.00,,---,0.00,VWS V14.01,2013-02-14 05:20:00,
2013-02-13 22:25:00,24.5,9.4,30.03,East,85,4.0,12.0,52,0.00,,---,0.00,VWS V14.01,2013-02-14 05:25:00,
2013-02-13 22:30:00,24.5,9.4,30.02,WSW,245,4.0,12.0,52,0.00,,---,0.00,VWS V14.01,2013-02-14 05:30:00,
2013-02-13 22:35:00,24.4,9.7,30.02,WNW,288,3.0,5.0,53,0.00,,---,0.00,VWS V14.01,2013-02-14 05:35:00,
2013-02-13 22:40:00,24.4,10.1,30.02,NW,319,2.0,10.0,54,0.00,,---,0.00,VWS V14.01,2013-02-14 05:40:00,
2013-02-13 22:45:00,24.5,10.7,30.02,NNW,340,4.0,10.0,55,0.00,,---,0.00,VWS V14.01,2013-02-14 05:45:00,
2013-02-13 22:50:00,24.5,10.7,30.02,WSW,248,3.0,10.0,55,0.00,,---,0.00,VWS V14.01,2013-02-14 05:50:00,
2013-02-13 22:55:00,24.5,10.7,30.02,SW,228,4.0,10.0,55,0.00,,---,0.00,VWS V14.01,2013-02-14 05:55:00,
2013-02-13 23:00:00,24.7,10.9,30.01,WSW,249,2.0,14.0,55,0.00,,---,0.00,VWS V14.01,2013-02-14 06:00:00,
2013-02-13 23:05:00,24.8,10.9,30.02,SSE,166,1.0,5.0,55,0.00,,---,0.00,VWS V14.01,2013-02-14 06:05:00,
2013-02-13 23:10:00,24.8,10.5,30.01,WNW,301,2.0,15.0,54,0.00,,---,0.00,VWS V14.01,2013-02-14 06:10:00,
2013-02-13 23:15:00,24.8,10.5,30.01,WNW,295,5.0,15.0,54,0.00,,---,0.00,VWS V14.01,2013-02-14 06:15:00,
2013-02-13 23:20:00,24.8,10.5,30.01,NW,315,2.0,15.0,54,0.00,,---,0.00,VWS V14.01,2013-02-14 06:20:00,
2013-02-13 23:25:00,24.9,10.2,30.01,SW,215,7.0,15.0,53,0.00,,---,0.00,VWS V14.01,2013-02-14 06:25:00,
2013-02-13 23:30:00,25.0,10.3,30.01,ESE,118,5.0,15.0,53,0.00,,---,0.00,VWS V14.01,2013-02-14 06:30:00,
2013-02-13 23:35:00,25.0,10.3,30.01,WSW,248,5.0,10.0,53,0.00,,---,0.00,VWS V14.01,2013-02-14 06:35:00,
2013-02-13 23:40:00,25.0,10.7,30.00,SW,222,4.0,10.0,54,0.00,,---,0.00,VWS V14.01,2013-02-14 06:40:00,
2013-02-13 23:45:00,25.0,10.3,30.00,West,276,3.0,17.0,53,0.00,,---,0.00,VWS V14.01,2013-02-14 06:45:00,
2013-02-13 23:50:00,25.1,10.8,30.01,SW,218,1.0,17.0,54,0.00,,---,0.00,VWS V14.01,2013-02-14 06:50:00,
2013-02-13 23:55:00,25.1,10.8,30.01,WSW,248,2.0,17.0,54,0.00,,---,0.00,VWS V14.01,2013-02-14 06:55:00,